Terminal Aerodrome Forecast
Issued by NWS

Home | Current Version | Previous Version | Text Only | Print | Product List | Glossary On
Versions: 1 2 3 4 5 6 7 8 9 10 11 12 13 14 15 16 17 18 19 20 21 22 23 24 25 26 27 28 29 30 31
000
FTUS45 KBYZ 311128
TAFLVM
TAF
KLVM 311128Z 3112/0112 27012KT P6SM BKN120
     FM311900 31017KT P6SM VCSH BKN070
     FM312300 33006KT 4SM -SN BKN020 OVC030
     FM011000 27008KT P6SM -SN BKN025 OVC040=

USA.gov is the U.S. government's official web portal to all federal, state and local government web resources and services.